Location: Bremen
(53.0793°N, 8.8017°E)
Time: 23:25:03
(UTC+02:00)

Vanguard 2 Rocket - Pass Details

Date: 19 April 2024
Orbit: 554 x 3293 km, 32.9° (Epoch: 18 May)

Event Time Altitude Azimuth Distance (km) Brightness Sun altitude
Rises 22:47:39 0° 220° (SW) 6,414 11.1 -17.3°
Reaches altitude 10° 22:52:17 10° 211° (SSW) 5,706 10.7 -17.7°
Maximum altitude 23:07:16 32° 157° (SSE) 4,620 9.9 -19.1°
Drops below altitude 10° 23:22:55 10° 104° (ESE) 5,988 10.6 -20.4°
Sets 23:27:54 0° 96° (E) 6,764 11.0 -20.8°
